Regional Weather Roundup
Issued by NWS Newport/Morehead, NC

Home | Current Version | Previous Version | Text Only | Print | Product List | Glossary On
Versions: 1 2 3 4 5 6 7 8 9 10 11 12 13 14 15 16 17 18 19 20 21 22 23 24 25 26 27 28 29 30 31 32 33 34 35 36 37 38 39 40 41 42 43 44 45 46 47 48 49 50
000
ASUS42 KMHX 271922
RWRMHX
WEATHER ROUNDUP FOR EASTERN NORTH CAROLINA
NATIONAL WEATHER SERVICE NEWPORT/MOREHEAD CITY NC
200 PM EST THU NOV 27 2014

NOTE: "FAIR" INDICATES FEW OR NO CLOUDS BELOW 12,000 FEET
WITH NO SIGNIFICANT WEATHER AND/OR OBSTRUCTIONS TO VISIBILITY

NCZ015>017-031-032-045>047-102-103-272000-
NORTH COAST

CITY           SKY/WX    TMP DP  RH WIND       PRES   REMARKS
EDENTON        MOSUNNY   51  43  73 N12       29.98S
ELIZABETH CITY CLOUDY    52  41  66 N15       29.99S
KITTY HAWK     PTCLDY    51  42  72 N5        29.94S
MANTEO         CLOUDY    51  43  73 N7        29.96R

$$

NCZ045>047-081-094-103-104-272000-
CENTRAL COAST

CITY           SKY/WX    TMP DP  RH WIND       PRES   REMARKS
FRISCO         SUNNY     57  46  66 VRB7      29.91F
SWANQUARTER      N/A     55 N/A N/A W7G13     29.91S

$$

NCZ095-097-098-100-101-272000-
SOUTHERN COAST

CITY           SKY/WX    TMP DP  RH WIND       PRES   REMARKS
BEAUFORT       SUNNY     56  40  55 W20G26    29.95R
CEDAR ISLAND     N/A     55 N/A N/A W10       29.97S
JACKSONVILLE   MOSUNNY   54  37  52 NW20G28   29.98R
PINEY ISLAND   CLEAR     58  40  51 W17       29.94R
WILMINGTON     MOSUNNY   53  36  52 W18G25    30.00S


$$

NCZ011>013-027>030-043-044-078>080-089-090>093-098-272000-
COASTAL PLAIN

CITY           SKY/WX    TMP DP  RH WIND       PRES   REMARKS
AHOSKIE        DRIZZLE   42  40  93 N3        30.03S
CLINTON        LGT RAIN  49  42  77 NW9G23    30.05R
ELIZABETHTOWN  PTSUNNY   53  37  54 NW9G21    30.04R
GOLDSBORO      MOSUNNY   48  46  93 NW12G20   30.01R
GREENVILLE     LGT RAIN  46  45  93 N15       30.03R
HAVELOCK       MOSUNNY   53  37  54 W17G26    29.97R
KENANSVILLE    PTSUNNY   50  40  68 W15G22    30.03R
KINSTON        PTSUNNY   50  45  81 NW7       30.01R
NEW BERN       MOSUNNY   54  39  57 W13       29.98R
RICHLANDS      MOSUNNY   54  37  54 NW9       30.01R
ROCKY MOUNT    CLOUDY    45  41  86 NW10      30.05R
WASHINGTON     MOSUNNY   51  41  70 N13G18    29.98R
WHITEVILLE     PTSUNNY   52  37  57 W7G17     30.04R

$$

AMZ130-135-150-152-154-156-158-170-250-252-270-ANZ085-086-088-633-658-670-272000-
MARINE OBSERVATIONS

STATION/POSITION TIME  TEMP    WIND        PRES    WAVE   SWELL
                       AIR SEA DIR/SP/G            HT/PER HT/PER
                 (UTC) (F)     (DEG/KT/KT) (MB)    (FT/S) (FT/S)
CHESAPEAKE LIGHT 1900   45     310/ 13/ 15 1016.6
64 E VA BEACH    1900   50 62  340/  6/ 10 1014.5    5/ 9   5/ 9
DUCK             1900   49 54   10/  9/ 10 1013.7
2 E DUCK         1900      56                N/A     4/ 9   2/11
10 NE DUCK       1900      58                N/A     4/10   2/11
OREGON INLET     1900   52 56  360/  8/ 10 1013.5
13E OREGON INLT  1900      61                N/A     5/ 9   2/11
HATTERAS CG      1900   55 58   20/  9/ 10 1013.1
DIAMOND BUOY     1900   61     250/ 19/ 27 1012.2    5/ 9   5/ 9
17 S OCRACOKE    NOT AVBL
CAPE LOOKOUT     1900   54     260/ 20/ 23 1013.9
BEAUFORT LAB     1900   55 57  310/ 10/ 17 1013.2
30 SE NEW RIVER  1900   55 66  280/ 19/ 27 1015.0    6/ 6   2/ 9
5 SE WRIGHTSVLE  1900   54 59  300/ 19/ 23 1015.3
225 S CAPE HAT   1822   69 73  260/ 21/ 25 1015.4    8/ 7
41 SE CHARLESTON 1900   55 73  290/ 23/ 29 1018.0    7/ 7   2/10

$$


USA.gov is the U.S. government's official web portal to all federal, state and local government web resources and services.